Time,TemperatureF,DewpointF,PressureIn,WindDirection,WindDirectionDegrees,WindSpeedMPH,WindSpeedGustMPH,Humidity,HourlyPrecipIn,Conditions,Clouds,dailyrainin,SoftwareType,DateUTC
2013-07-10 00:01:00,71.0,-99.9,30.08,SSW,194,2.0,4.0,-999,-99.99,,,-99.99,,2013-07-10 04:01:00,
2013-07-10 00:22:00,71.0,-99.9,30.08,South,183,4.0,6.0,-999,-99.99,,,-99.99,,2013-07-10 04:22:00,
2013-07-10 00:33:00,71.0,-99.9,30.08,SSW,196,3.0,4.0,-999,-99.99,,,-99.99,,2013-07-10 04:33:00,
2013-07-10 00:52:00,72.0,-99.9,30.07,SSW,204,2.0,5.0,-999,-99.99,,,-99.99,,2013-07-10 04:52:00,
2013-07-10 01:02:00,71.0,-99.9,30.08,SSW,203,4.0,7.0,-999,-99.99,,,-99.99,,2013-07-10 05:02:00,
2013-07-10 01:53:00,72.0,-99.9,30.06,SSW,193,6.0,8.0,-999,-99.99,,,-99.99,,2013-07-10 05:53:00,
2013-07-10 02:01:00,71.0,-99.9,30.06,SSW,197,5.0,8.0,-999,-99.99,,,-99.99,,2013-07-10 06:01:00,
2013-07-10 02:33:00,71.0,-99.9,30.05,SSW,213,4.0,8.0,-999,-99.99,,,-99.99,,2013-07-10 06:33:00,
2013-07-10 02:42:00,72.0,-99.9,30.04,SSW,208,4.0,9.0,-999,-99.99,,,-99.99,,2013-07-10 06:42:00,
2013-07-10 02:52:00,72.0,-99.9,30.04,SSW,211,5.0,6.0,-999,-99.99,,,-99.99,,2013-07-10 06:52:00,
2013-07-10 03:01:00,72.0,-99.9,30.04,SW,215,5.0,8.0,-999,-99.99,,,-99.99,,2013-07-10 07:01:00,
2013-07-10 03:12:00,72.0,-99.9,30.04,SSW,211,4.0,9.0,-999,-99.99,,,-99.99,,2013-07-10 07:12:00,
2013-07-10 03:33:00,72.0,-99.9,30.04,SSW,206,5.0,7.0,-999,-99.99,,,-99.99,,2013-07-10 07:33:00,
2013-07-10 03:43:00,72.0,-99.9,30.04,SSW,204,6.0,10.0,-999,-99.99,,,-99.99,,2013-07-10 07:43:00,
2013-07-10 03:53:00,72.0,-99.9,30.03,SSW,193,5.0,8.0,-999,-99.99,,,-99.99,,2013-07-10 07:53:00,
2013-07-10 04:02:00,72.0,-99.9,30.03,SSW,204,3.0,8.0,-999,-99.99,,,-99.99,,2013-07-10 08:02:00,
2013-07-10 04:12:00,72.0,-99.9,30.03,SSW,205,6.0,10.0,-999,-99.99,,,-99.99,,2013-07-10 08:12:00,
2013-07-10 04:33:00,72.0,-99.9,30.02,SSW,199,4.0,8.0,-999,-99.99,,,-99.99,,2013-07-10 08:33:00,
2013-07-10 04:42:00,72.0,-99.9,30.02,SSW,213,4.0,9.0,-999,-99.99,,,-99.99,,2013-07-10 08:42:00,
2013-07-10 04:53:00,72.0,-99.9,30.02,SW,216,5.0,7.0,-999,-99.99,,,-99.99,,2013-07-10 08:53:00,
2013-07-10 05:02:00,72.0,-99.9,30.02,SW,223,5.0,8.0,-999,-99.99,,,-99.99,,2013-07-10 09:02:00,
2013-07-10 05:22:00,72.0,-99.9,30.02,SW,219,5.0,7.0,-999,-99.99,,,-99.99,,2013-07-10 09:22:00,
2013-07-10 06:01:00,72.0,-99.9,30.02,SW,220,3.0,6.0,-999,-99.99,,,-99.99,,2013-07-10 10:01:00,
2013-07-10 06:23:00,71.0,-99.9,30.03,SW,219,3.0,7.0,-999,-99.99,,,-99.99,,2013-07-10 10:23:00,
2013-07-10 06:51:00,-999.0,-99.9,30.03,SSW,206,3.0,7.0,-999,-99.99,,,-99.99,,2013-07-10 10:51:00,
2013-07-10 07:00:00,-999.0,-99.9,30.03,SW,224,5.0,7.0,-999,-99.99,,,-99.99,,2013-07-10 11:00:00,
2013-07-10 07:12:00,71.0,-99.9,30.03,South,191,4.0,7.0,-999,-99.99,,,-99.99,,2013-07-10 11:12:00,
2013-07-10 07:43:00,71.0,-99.9,30.03,South,171,5.0,5.0,-999,-99.99,,,-99.99,,2013-07-10 11:43:00,
2013-07-10 07:52:00,71.0,-99.9,30.03,South,171,5.0,5.0,-999,-99.99,,,-99.99,,2013-07-10 11:52:00,
2013-07-10 08:02:00,71.0,-99.9,30.02,SE,144,3.0,6.0,-999,-99.99,,,-99.99,,2013-07-10 12:02:00,
2013-07-10 08:53:00,72.0,-99.9,30.02,South,183,6.0,9.0,-999,-99.99,,,-99.99,,2013-07-10 12:53:00,
2013-07-10 09:01:00,73.0,-99.9,30.02,South,186,6.0,10.0,-999,-99.99,,,-99.99,,2013-07-10 13:01:00,
2013-07-10 09:32:00,75.0,-99.9,30.01,South,179,8.0,11.0,-999,-99.99,,,-99.99,,2013-07-10 13:32:00,
2013-07-10 09:43:00,74.0,-99.9,30.01,SSW,196,6.0,10.0,-999,-99.99,,,-99.99,,2013-07-10 13:43:00,
2013-07-10 10:02:00,73.0,-99.9,30.01,SSW,192,7.0,13.0,-999,-99.99,,,-99.99,,2013-07-10 14:02:00,
2013-07-10 10:22:00,73.0,-99.9,30.01,SSW,200,8.0,12.0,-999,-99.99,,,-99.99,,2013-07-10 14:22:00,
2013-07-10 10:44:00,74.0,-99.9,30.00,SSW,203,7.0,11.0,-999,-99.99,,,-99.99,,2013-07-10 14:44:00,
2013-07-10 11:02:00,77.0,-99.9,29.99,SSW,212,9.0,14.0,-999,-99.99,,,-99.99,,2013-07-10 15:02:00,
2013-07-10 11:11:00,77.0,-99.9,29.99,SSW,212,9.0,14.0,-999,-99.99,,,-99.99,,2013-07-10 15:11:00,
2013-07-10 11:22:00,76.0,-99.9,30.00,SW,229,12.0,15.0,-999,-99.99,,,-99.99,,2013-07-10 15:22:00,
2013-07-10 11:43:00,77.0,-99.9,30.00,SSW,198,9.0,13.0,-999,-99.99,,,-99.99,,2013-07-10 15:43:00,
2013-07-10 11:52:00,77.0,-99.9,30.00,SSW,198,9.0,13.0,-999,-99.99,,,-99.99,,2013-07-10 15:52:00,
2013-07-10 12:23:00,75.0,-99.9,30.00,SW,214,12.0,16.0,-999,-99.99,,,-99.99,,2013-07-10 16:23:00,
2013-07-10 12:44:00,75.0,-99.9,29.99,SSW,203,8.0,14.0,-999,-99.99,,,-99.99,,2013-07-10 16:44:00,
2013-07-10 13:32:00,76.0,-99.9,29.98,SW,223,8.0,14.0,-999,-99.99,,,-99.99,,2013-07-10 17:32:00,
2013-07-10 13:43:00,78.0,-99.9,29.98,SSW,209,9.0,15.0,-999,-99.99,,,-99.99,,2013-07-10 17:43:00,
2013-07-10 13:53:00,77.0,-99.9,29.97,SW,230,11.0,15.0,-999,-99.99,,,-99.99,,2013-07-10 17:53:00,
2013-07-10 14:02:00,77.0,-99.9,29.97,SSW,201,10.0,15.0,-999,-99.99,,,-99.99,,2013-07-10 18:02:00,
2013-07-10 14:22:00,77.0,-99.9,29.97,South,190,7.0,15.0,-999,-99.99,,,-99.99,,2013-07-10 18:22:00,
2013-07-10 14:53:00,77.0,-99.9,29.95,SSW,197,12.0,18.0,-999,-99.99,,,-99.99,,2013-07-10 18:53:00,
2013-07-10 15:02:00,78.0,-99.9,29.95,SSW,205,13.0,19.0,-999,-99.99,,,-99.99,,2013-07-10 19:02:00,
2013-07-10 15:22:00,78.0,-99.9,29.95,SSW,212,12.0,20.0,-999,-99.99,,,-99.99,,2013-07-10 19:22:00,
2013-07-10 15:32:00,77.0,-99.9,29.95,SSW,211,13.0,23.0,-999,-99.99,,,-99.99,,2013-07-10 19:32:00,
2013-07-10 16:02:00,75.0,-99.9,29.94,South,190,8.0,17.0,-999,-99.99,,,-99.99,,2013-07-10 20:02:00,
2013-07-10 16:22:00,75.0,-99.9,29.93,SSW,196,13.0,17.0,-999,-99.99,,,-99.99,,2013-07-10 20:22:00,
2013-07-10 16:43:00,75.0,-99.9,29.93,SSW,197,9.0,21.0,-999,-99.99,,,-99.99,,2013-07-10 20:43:00,
2013-07-10 17:01:00,75.0,-99.9,29.92,South,191,12.0,17.0,-999,-99.99,,,-99.99,,2013-07-10 21:01:00,
2013-07-10 18:43:00,74.0,-99.9,29.87,SSW,197,9.0,15.0,-999,-99.99,,,-99.99,,2013-07-10 22:43:00,
2013-07-10 18:53:00,74.0,-99.9,29.87,SSW,194,8.0,14.0,-999,-99.99,,,-99.99,,2013-07-10 22:53:00,
2013-07-10 19:02:00,73.0,-99.9,29.87,SSW,205,9.0,13.0,-999,-99.99,,,-99.99,,2013-07-10 23:02:00,
2013-07-10 19:32:00,73.0,-99.9,29.88,SSW,195,8.0,15.0,-999,-99.99,,,-99.99,,2013-07-10 23:32:00,
2013-07-10 19:43:00,73.0,-99.9,29.88,SSW,195,8.0,15.0,-999,-99.99,,,-99.99,,2013-07-10 23:43:00,
2013-07-10 19:52:00,73.0,-99.9,29.88,SSW,192,6.0,14.0,-999,-99.99,,,-99.99,,2013-07-10 23:52:00,
2013-07-10 20:01:00,73.0,-99.9,29.88,South,186,9.0,13.0,-999,-99.99,,,-99.99,,2013-07-11 00:01:00,
2013-07-10 20:11:00,73.0,-99.9,29.87,South,186,8.0,15.0,-999,-99.99,,,-99.99,,2013-07-11 00:11:00,
2013-07-10 20:32:00,73.0,-99.9,29.88,SSW,197,9.0,16.0,-999,-99.99,,,-99.99,,2013-07-11 00:32:00,
2013-07-10 20:43:00,73.0,-99.9,29.89,SSW,194,9.0,13.0,-999,-99.99,,,-99.99,,2013-07-11 00:43:00,
2013-07-10 20:52:00,73.0,-99.9,29.89,SSW,194,9.0,13.0,-999,-99.99,,,-99.99,,2013-07-11 00:52:00,
2013-07-10 21:01:00,73.0,-99.9,29.89,SSW,201,8.0,14.0,-999,-99.99,,,-99.99,,2013-07-11 01:01:00,
2013-07-10 21:32:00,73.0,-99.9,29.90,SSW,212,7.0,13.0,-999,-99.99,,,-99.99,,2013-07-11 01:32:00,
2013-07-10 21:43:00,73.0,-99.9,29.90,SSW,207,8.0,14.0,-999,-99.99,,,-99.99,,2013-07-11 01:43:00,
2013-07-10 21:52:00,73.0,-99.9,29.90,SSW,211,7.0,13.0,-999,-99.99,,,-99.99,,2013-07-11 01:52:00,
2013-07-10 22:44:00,73.0,-99.9,29.90,SSW,207,8.0,12.0,-999,-99.99,,,-99.99,,2013-07-11 02:44:00,
2013-07-10 22:53:00,73.0,-99.9,29.89,SSW,206,9.0,14.0,-999,-99.99,,,-99.99,,2013-07-11 02:53:00,
2013-07-10 23:02:00,73.0,-99.9,29.89,SSW,205,9.0,15.0,-999,-99.99,,,-99.99,,2013-07-11 03:02:00,
2013-07-10 23:33:00,73.0,-99.9,29.89,SSW,200,8.0,13.0,-999,-99.99,,,-99.99,,2013-07-11 03:33:00,
2013-07-10 23:53:00,73.0,-99.9,29.88,SSW,197,9.0,16.0,-999,-99.99,,,-99.99,,2013-07-11 03:53:00,